Location: Chequamegon National Forest
(46.1070°N, 90.8420°W)
Time: 02:40:51
(UTC-05:00)

ISS - All Passes

Search period start: 26 October 2014 00:00
Search period end: 04 November 2014 23:00
Orbit: 412 x 416 km, 51.6° (Epoch: 26 October)

Date Brightness Start Highest point End Pass type
(mag) Time Alt. Az. Time Alt. Az. Time Alt. Az.
26 Oct - 12:08:34 10° S 12:11:07 21° SE 12:13:40 10° E daylight
26 Oct - 13:44:11 10° WSW 13:47:31 72° NNW 13:50:52 10° ENE daylight
26 Oct - 15:21:32 10° WNW 15:24:34 31° N 15:27:36 10° ENE daylight
26 Oct - 16:58:36 10° WNW 17:01:47 40° NNE 17:04:57 10° E daylight
26 Oct - 18:35:18 10° WNW 18:38:34 53° SSW 18:41:49 10° SE visible
27 Oct - 11:20:34 10° SSE 11:22:05 13° SE 11:23:36 10° ESE daylight
27 Oct - 12:54:57 10° SW 12:58:16 77° SSE 13:01:37 10° ENE daylight
27 Oct - 14:32:05 10° WNW 14:35:11 34° N 14:38:17 10° ENE daylight
27 Oct - 16:09:19 10° WNW 16:12:24 33° N 16:15:30 10° ENE daylight
27 Oct - 17:46:00 10° WNW 17:49:21 84° SSW 17:52:41 10° ESE daylight
27 Oct - 19:23:44 10° W 19:25:36 14° SW 19:27:27 10° SSW visible
28 Oct - 12:05:50 10° SW 12:09:02 47° SE 12:12:16 10° ENE daylight
28 Oct - 13:42:35 10° W 13:45:47 42° NNW 13:48:59 10° ENE daylight
28 Oct - 15:19:58 10° WNW 15:22:59 31° N 15:26:00 10° ENE daylight
28 Oct - 16:56:43 10° WNW 17:00:03 66° NNE 17:03:22 10° ESE daylight
28 Oct - 18:33:48 10° W 18:36:30 23° SW 18:39:12 10° SSE visible
29 Oct - 11:16:55 10° SSW 11:19:50 29° SE 11:22:47 10° ENE daylight
29 Oct - 12:53:06 10° W 12:56:23 55° NNW 12:59:41 10° ENE daylight
29 Oct - 14:30:30 10° WNW 14:33:30 30° N 14:36:31 10° ENE daylight
29 Oct - 16:07:25 10° WNW 16:10:40 47° NNE 16:13:55 10° E daylight
29 Oct - 17:44:12 10° WNW 17:47:19 37° SW 17:50:25 10° SSE daylight
30 Oct - 10:28:18 10° S 10:30:39 18° SE 10:33:01 10° E daylight
30 Oct - 12:03:40 10° WSW 12:07:00 79° NNW 12:10:20 10° ENE daylight
30 Oct - 13:40:58 10° WNW 13:44:00 32° N 13:47:03 10° ENE daylight
30 Oct - 15:18:04 10° WNW 15:21:13 37° NNE 15:24:21 10° E daylight
30 Oct - 16:54:44 10° WNW 16:58:02 60° SSW 17:01:19 10° SE daylight
31 Oct - 09:40:35 10° SSE 09:41:30 11° SE 09:42:25 10° ESE daylight
31 Oct - 11:14:19 10° SW 11:17:37 68° SSE 11:20:56 10° ENE daylight
31 Oct - 12:51:21 10° W 12:54:29 36° NNW 12:57:36 10° ENE daylight
31 Oct - 14:28:38 10° WNW 14:31:41 32° N 14:34:45 10° ENE daylight
31 Oct - 16:05:19 10° WNW 16:08:40 87° NNE 16:12:00 10° ESE daylight
31 Oct - 17:42:48 10° W 17:44:57 16° SW 17:47:06 10° S daylight
01 Nov - 10:25:07 10° SW 10:28:16 41° SE 10:31:25 10° ENE daylight
01 Nov - 12:01:44 10° W 12:04:56 44° NNW 12:08:10 10° ENE daylight
01 Nov - 13:39:06 10° WNW 13:42:07 30° N 13:45:07 10° ENE daylight
01 Nov - 15:15:54 10° WNW 15:19:12 59° NNE 15:22:30 10° ESE daylight
01 Nov - 16:52:51 10° W 16:55:42 26° SW 16:58:32 10° SSE daylight
02 Nov - 08:36:08 10° SSW 08:38:56 25° SE 08:41:44 10° E daylight
02 Nov - 10:12:07 10° WSW 10:15:25 60° NNW 10:18:43 10° ENE daylight
02 Nov - 11:49:29 10° WNW 11:52:30 30° N 11:55:30 10° ENE daylight
02 Nov - 13:26:27 10° WNW 13:29:40 44° NNE 13:32:52 10° E daylight
02 Nov - 15:03:10 10° WNW 15:06:21 42° SW 15:09:31 10° SE daylight
03 Nov - 07:47:32 10° S 07:49:37 16° SE 07:51:42 10° E daylight
03 Nov - 09:22:34 10° WSW 09:25:53 88° NNW 09:29:14 10° ENE daylight
03 Nov - 10:59:48 10° WNW 11:02:51 32° N 11:05:54 10° ENE daylight
03 Nov - 12:36:56 10° WNW 12:40:03 36° NNE 12:43:10 10° E daylight
03 Nov - 14:13:35 10° WNW 14:16:55 69° SSW 14:20:13 10° SE daylight
03 Nov - 15:51:58 10° WSW 15:53:02 11° SW 15:54:06 10° SSW daylight
04 Nov - 08:33:07 10° SW 08:36:23 59° SSE 08:39:40 10° ENE daylight
04 Nov - 10:10:03 10° W 10:13:11 38° NNW 10:16:20 10° ENE daylight
04 Nov - 11:47:21 10° WNW 11:50:23 31° N 11:53:25 10° ENE daylight
04 Nov - 13:24:03 10° WNW 13:27:23 77° NNE 13:30:42 10° ESE daylight
04 Nov - 15:01:19 10° W 15:03:43 19° SW 15:06:07 10° S daylight
